Regional Weather Roundup
Issued by NWS Lake Charles, LA

Home | Current Version | Previous Version | Text Only | Print | Product List | Glossary On
Versions: 1 2 3 4 5 6 7 8 9 10 11 12 13 14 15 16 17 18 19 20 21 22 23 24 25 26 27 28 29 30 31 32 33 34 35 36 37 38 39 40 41 42 43 44 45 46 47 48 49 50
765
ASUS44 KLCH 220210
RWRLCH
REGIONAL WEATHER ROUNDUP
NATIONAL WEATHER SERVICE LAKE CHARLES LA
800 PM CST TUE FEB 21 2017

Note: "fair" indicates few or no clouds below 12,000 feet with no
significant weather and/or obstructions to visibility.


ACROSS SOUTHEAST TEXAS

CITY           SKY/WX    TMP DP  RH WIND       PRES   REMARKS
BEAUMONT       CLEAR     65  53  65 W6        29.89R
BEAUMONT CITY  FAIR      64  54  69 W3        29.90S
ORANGE         CLEAR     60  57  88 CALM      29.91R
JASPER         PTCLDY    61  59  92 CALM      29.92R
$$

ACROSS CENTRAL LOUISIANA

CITY           SKY/WX    TMP DP  RH WIND       PRES   REMARKS
LEESVILLE      CLOUDY    65  56  71 N5        29.88R
FULLERTON      CLOUDY    63  56  78 CALM      29.86S
ALEXANDRIA INT CLOUDY    63  57  81 NW8       29.86R
ESLER FIELD    CLOUDY    60  60 100 CALM      29.88R
DERIDDER       CLOUDY    64  56  74 CALM      29.91R
OAKDALE        MOCLDY    62  55  78 N3        29.88R
OPELOUSAS      CLOUDY    61  56  83 MISG      29.88S
$$

ACROSS SOUTHWEST AND SOUTH CENTRAL LOUISIANA

CITY           SKY/WX    TMP DP  RH WIND       PRES   REMARKS
SULPHUR        CLOUDY    66  58  76 CALM      29.90R
LAKE CHARLES   MOCLDY    63  58  83 SW3       29.89R
CHENNAULT INT  CLOUDY    64  55  72 CALM      29.89R
CAMERON PHI    CLEAR     63  59  88 SW7       29.89R
DEQUINCY       FAIR      60  55  85 CALM      29.89R
JENNINGS       MOCLDY    63  56  77 SW3       29.88S
LAFAYETTE      MOCLDY    62  58  86 CALM      29.88R
NEW IBERIA     PTCLDY    60  52  74 CALM      29.89R
ABBEVILLE      MOCLDY    59  57  94 CALM      29.89S
PATTERSON      CLEAR     56  55  97 CALM      29.89R
SALT POINT       N/A     57  32  38 CALM      29.87R
$$

SELECTED SITES ACROSS THE REGION

CITY           SKY/WX    TMP DP  RH WIND       PRES   REMARKS
HOUSTON BUSH   CLEAR     65  49  56 W5        29.91R
HOUSTON HOBBY  CLEAR     69  48  47 VRB5      29.91R
GALVESTON      CLEAR     69  55  60 W8        29.91R
COLLEGE STAT   PTCLDY    61  49  64 NW3       29.93R
CONROE         CLEAR     56  52  86 CALM      29.92R
HUNTSVILLE     CLEAR     62  49  62 CALM      29.93R
LUFKIN         CLEAR     60  53  77 CALM      29.90R
SHREVEPORT     CLOUDY    63  57  81 W3        29.88S
MONROE         CLOUDY    61  58  90 W3        29.88R
NATCHEZ MS     MOCLDY    57  54  88 CALM      29.87S
BATON ROUGE    CLEAR     61  53  75 CALM      29.87R
N.O. INTL ARPT PTCLDY    61  59  93 W3        29.86R
SLIDELL        PTCLDY    61  57  87 CALM      29.85R
$$

MARINE REPORTS

STATION/POSITION TIME  SKY/WX   TEMP    WIND        PRES    VSBY
                                AIR SEA DIR/SP/G
                 (UTC)          (F)     (DEG/KT/KT) (MB)    (MI)
BUOY 30 S HIGH I 0150            67 65  310/  8/  8 1012.5R
WVE H/P(F/S)=  3/ 6

SEA RIM ST PARK  0200            63     330/  6/  6 1012.8R
PORT ARTHUR      0148               66  340/  6/  8 1012.3R
SABINE PASS N    0148            62 68  220/  2/  3 1013.6R
TEXAS POINT      NOT AVBL
CALCASIEU PASS   0148            64 65  240/  7/ 10   N/A
LK CHARLES BEACH 0148            67 66              1012.6R
MARSH ISLAND     0100            62                   N/A
FRESH WATER LOCK 0148            61 67  240/  3/  3 1013.0R
AMERADA PASS     0148            60 60  290/  3/  4 1011.7R
$$




USA.gov is the U.S. government's official web portal to all federal, state and local government web resources and services.